Burlington, NC

1:51 AM EDT on August 26, 2016 (GMT -0400)
Burlington-Alamance Regional

Weather History for KBUY - May, 2013

Change the Weather History Date:

Saturday, May 4, 2013

  Actual Average Record
Temperature  
Mean Temperature 54 °F -  
Max Temperature 63 °F 75 °F 91 °F (1965)
Min Temperature 48 °F 49 °F 36 °F (1981)
Degree Days  
Heating Degree Days 10    
Growing Degree Days 4 (Base 50)    
Moisture  
Dew Point 46 °F    
Average Humidity 74    
Maximum Humidity 87    
Minimum Humidity 57    
Precipitation  
Precipitation 0.00 in - - ()
Sea Level Pressure  
Sea Level Pressure 30.14 in    
Wind  
Wind Speed 11 mph (NE)    
Max Wind Speed 17 mph    
Max Gust Speed 25 mph    
Visibility 10 miles    
Events      
Averages and records for this station are not official NWS values.
T = Trace of Precipitation, MM = Missing Value Source: NWS Daily Summary

Daily Weather History Graph

Daily Weather History Graph

Search for Another Location

Airport or City:

Trip Planner

Search our weather history database for the weather conditions in past years. The results will help you decide how hot, cold, wet, or windy it might be!

Date:

Astronomy

May. 04, 2013 Rise Set
Actual Time 6:21 AM EDT 8:07 PM EDT
Civil Twilight 5:54 AM EDT 8:35 PM EDT
Nautical Twilight 5:20 AM EDT 9:09 PM EDT
Astronomical Twilight 4:45 AM EDT 9:45 PM EDT
Moon 3:09 AM EDT (5/4) 3:12 PM EDT (5/4)
Length of Visible Light 14h 41m
Length of Day
13h 46m
Waning Crescent, 27% of the Moon is Illuminated
May 4
Waning Crescent
May 9
New
May 18
First Quarter
May 25
Full
May 31
Last Quarter

Hourly Weather History & Observations

Time (EDT) Temp. Dew Point Humidity Pressure Visibility Wind Dir Wind Speed Gust Speed Precip Events Conditions
12:54 AM 50.0 °F 42.1 °F 74% 30.21 in 10.0 mi NE 9.2 mph - N/A   Clear
1:54 AM 50.0 °F 42.1 °F 74% 30.19 in 10.0 mi NE 5.8 mph - N/A   Overcast
2:54 AM 48.9 °F 43.0 °F 80% 30.17 in 10.0 mi NE 10.4 mph - N/A   Mostly Cloudy
3:17 AM 48.2 °F 42.8 °F 82% 30.18 in 10.0 mi NE 6.9 mph - N/A   Mostly Cloudy
3:54 AM 48.9 °F 43.0 °F 80% 30.17 in 10.0 mi NE 11.5 mph 17.3 mph N/A   Overcast
4:47 AM 48.2 °F 44.6 °F 87% 30.17 in 10.0 mi NNE 10.4 mph - N/A   Overcast
4:54 AM 48.9 °F 44.1 °F 83% 30.17 in 10.0 mi NE 6.9 mph 17.3 mph N/A   Overcast
5:54 AM 48.9 °F 44.1 °F 83% 30.17 in 10.0 mi NNE 12.7 mph - N/A   Overcast
6:54 AM 48.9 °F 44.1 °F 83% 30.18 in 10.0 mi NE 9.2 mph - N/A   Overcast
7:54 AM 48.9 °F 44.1 °F 83% 30.19 in 10.0 mi NE 9.2 mph 18.4 mph N/A   Overcast
8:54 AM 48.9 °F 44.1 °F 83% 30.20 in 9.0 mi NNE 9.2 mph - N/A   Overcast
9:54 AM 50.0 °F 44.1 °F 80% 30.19 in 10.0 mi NE 8.1 mph 18.4 mph N/A   Overcast
10:07 AM 51.8 °F 44.6 °F 76% 30.19 in 10.0 mi NNE 12.7 mph - N/A   Overcast
10:54 AM 54.0 °F 45.0 °F 72% 30.18 in 10.0 mi NNE 12.7 mph 19.6 mph N/A   Overcast
11:54 AM 55.0 °F 45.0 °F 69% 30.17 in 10.0 mi NE 15.0 mph 20.7 mph N/A   Overcast
12:22 PM 55.4 °F 44.6 °F 67% 30.16 in 10.0 mi NE 13.8 mph 23.0 mph N/A   Overcast
12:54 PM 57.0 °F 45.0 °F 64% 30.15 in 10.0 mi NNE 13.8 mph 17.3 mph N/A   Overcast
1:54 PM 60.1 °F 45.0 °F 57% 30.13 in 10.0 mi ENE 17.3 mph 24.2 mph N/A   Mostly Cloudy
2:42 PM 60.8 °F 46.4 °F 59% 30.12 in 10.0 mi NE 15.0 mph 21.9 mph N/A   Mostly Cloudy
2:54 PM 60.1 °F 46.9 °F 62% 30.11 in 10.0 mi NE 12.7 mph 23.0 mph N/A   Mostly Cloudy
3:26 PM 60.8 °F 46.4 °F 59% 30.11 in 10.0 mi NE 16.1 mph 25.3 mph N/A   Mostly Cloudy
3:54 PM 61.0 °F 48.0 °F 62% 30.10 in 10.0 mi NE 12.7 mph 23.0 mph N/A   Mostly Cloudy
4:54 PM 61.0 °F 48.9 °F 64% 30.09 in 10.0 mi NE 12.7 mph 19.6 mph N/A   Mostly Cloudy
5:54 PM 61.0 °F 50.0 °F 67% 30.08 in 10.0 mi NE 13.8 mph 23.0 mph N/A   Mostly Cloudy
6:15 PM 57.2 °F 50.0 °F 77% 30.09 in 10.0 mi NNE 15.0 mph 21.9 mph N/A   Overcast
6:54 PM 57.9 °F 50.0 °F 75% 30.09 in 10.0 mi NE 9.2 mph 16.1 mph N/A   Overcast
7:28 PM 57.2 °F 50.0 °F 77% 30.09 in 10.0 mi NE 10.4 mph - N/A   Overcast
7:54 PM 57.9 °F 50.0 °F 75% 30.10 in 10.0 mi NE 9.2 mph 19.6 mph N/A   Overcast
8:54 PM 55.9 °F 51.1 °F 84% 30.11 in 10.0 mi ENE 9.2 mph 16.1 mph 0.00 in   Overcast
9:54 PM 55.9 °F 50.0 °F 80% 30.12 in 10.0 mi NE 9.2 mph 18.4 mph N/A   Overcast
10:54 PM 55.9 °F 48.9 °F 77% 30.10 in 10.0 mi ENE 11.5 mph 20.7 mph N/A   Overcast
11:54 PM 55.0 °F 48.0 °F 77% 30.10 in 10.0 mi NE 15.0 mph 20.7 mph N/A   Overcast